sat.trackr.live / text

‹ back to catalog

STARLINK-32126

NORAD 60295 · 2024-132T

PAYLOAD ACTIVE UNKNOWN

§ Identity

Operator
Country
US
Launch date
2024-07-28
Launch site
AFETR
Launch vehicle
Mass (kg)
RCS (m²)

Purposes: comms

External: N2YO · Heavens-Above · Gunter

§ Orbital elements

Epoch: 2026-05-25T03:12:29.648736Z

Period
94.01 min
Inclination
53.1610°
Eccentricity
0.0001158
Mean motion
15.31700302 rev/d
Perigee alt
469.9 km
Apogee alt
471.5 km
Semi-major
6,848.9 km
B*
2.4380e-5
RAAN
57.4001°
Arg perigee
95.1312°
Mean anomaly
264.9822°
Rev number
10,326

§ Raw data

STARLINK-321261 60295U 24132T   26145.13367649  .00000392  00000+0  24380-4 0  99952 60295  53.1610  57.4001 0001158  95.1312 264.9822 15.31700302103260

JSON: /api/v1/satellites/60295 · /tle

For live sub-satellite position, see the globe view (requires WebGL).

§ Visibility from observer

Set your observer location to see the next 7 days of passes ≥ 10°. The values pass through the URL so the page stays shareable.

No JS? Fill the form by hand. The geolocation button needs JavaScript.